Location: Béaulencourt
(50.0796°N, 2.8795°E)
Time: 20:38:57
(UTC+00:00)

Cosmos 1954 Rocket - Pass Details

Date: 20 January 2026
Orbit: 747 x 777 km, 74.0° (Epoch: 16 February)

Event Time Altitude Azimuth Distance (km) Brightness Sun altitude
Rises 06:14:04 0° 195° (SSW) 3,180 7.2 -13.0°
Reaches altitude 10° 06:16:25 10° 193° (SSW) 2,260 6.5 -12.7°
Maximum altitude 06:21:30 70° 110° (ESE) 797 4.3 -11.9°
Drops below altitude 10° 06:26:39 10° 28° (NNE) 2,283 6.6 -11.1°
Sets 06:29:02 0° 26° (NNE) 3,216 7.3 -10.7°
